Location: Unnamed
(42.1164°N, 2.7652°E)
Time: 20:43:07
(UTC+02:00)

ISS - Pass Details

Date: 15 May 2021
Orbit: 417 x 422 km, 51.6° (Epoch: 14 June)

Event Time Altitude Azimuth Distance (km) Brightness Sun altitude
Rises 21:58:28 0° 214° (SW) 2,347 0.0 -9.5°
Reaches altitude 10° 22:00:39 10° 205° (SSW) 1,489 -1.1 -9.9°
Maximum altitude 22:03:44 35° 138° (SE) 691 -3.2 -10.3°
Drops below altitude 10° 22:06:50 10° 70° (ENE) 1,500 -1.3 -10.8°
Sets 22:09:02 0° 62° (ENE) 2,369 -0.2 -11.1°
